Aérodrome :
LOGIN :

S'inscrire | Disclaimer

   EN    FR    IT 

 










Légende :    VFR   VFR Marginal   IFR   IFR Intensif   IFR Très Intensif
Visi : 
Plafond : 
>= 8 km
>= 3000ft
5 à 8 km
1000 à 3000 ft
1500m à 5 km
500 à 1000 ft
800 à 1500m
200 à 500 ft
< 800m
< 200 ft
Symboles :   Orages  Brouillard  Fortes neiges  Fortes précipitations  Vent > 20 kt
SIGMETs :   Divers  Orages  Givrage  Turbulence  Onde Orograph.  Cendres Volcan.







- Altitude de l'aérodrome : 106 ft
- Code IATA : XDA
- Voir les cartes d'approche


LFBY - Dax Seyresse

DERNIER METAR :
  • 141300Z 25012KT 220V290 7000 SCT010 BKN023 BKN036 13/10 Q1013

METARs EXPIRÉS :
  • 141200Z 25010KT 210V280 9999 SCT010 BKN020 BKN033 13/11 Q1014
  • 141100Z 25011KT 220V280 6000 -SHRA SCT013 SCT020 BKN033 13/11 Q1015

TAF TAF LFBY
Valide du 14 à 09h jusqu'au 14 à 18h UTC


140800Z 1409/1418 26012KT 9999 BKN020 BKN040
TEMPO 1409/1418 26015G25KT 3000 SHRA BKN010 BKN025
PROB30
TEMPO 1412/1418 26015G35KT
Pas de NOTAMs connus pour ce terrain.



MET'MAP, la Météo Aéronautique d'un coup d'oeil ! - Copyright ORBIFLY Décembre 2007 - Disclaimer

ORBIFLY MET'MAP TEAM :

Programmation & Développement : Alexandra Zaïnal
Conception & Développement : Baudouin d'Aumeries
Co-Programmation & Développement : Marc-Olivier Méhu
Soutien technique & logistique : Manuel Goepfert

Contact : metmap@orbifly.com




SOURCES & CREDITS :

   NOAA